Tracking 30106 objects as of 23-Jan-2025
HD Live streaming from Space Station
objects crossing your sky now

STARLINK-31952

Track STARLINK-31952 now!
10-day predictions
STARLINK-31952 is classified as:


NORAD ID: 59867
Int'l Code: 2024-098K
Perigee: 449.6 km
Apogee: 452.8 km
Inclination: 43.0 °
Period: 93.5 minutes
Semi major axis: 6822 km
RCS: Unknown
Launch date: May 24, 2024
Source: United States (US)
Launch site: AIR FORCE EASTERN TEST RANGE (AFETR)
Your satellite tracking list
Your tracking list is empty




NASA's NSSDC Master Catalog

Two Line Element Set (TLE):
1 59867U 24098K   25023.19523462 -.00002238  00000-0 -46330-4 0  9999
2 59867  43.0052  86.8711 0002382 251.1532 108.9066 15.40691150 38290
Source of the keplerian elements: AFSPC